GFSGBSN_925_spd_024.txt.gz
Wind_Speed
10 10 13 14 12 15 18 19 21 21 18 15 14 15 15 14 14 13 11 10 11 11 11 8 8 11 3 7 1 6 7 5 4 7 14 11 13 7 8 6 7 8 8 10 9 6 4
10 10 13 12 13 15 18 20 19 18 15 13 13 13 13 13 12 11 9 11 12 11 9 7 7 8 4 12 3 1 5 8 2 10 4 5 6 7 4 6 7 9 9 10 8 6 4
10 10 11 12 12 15 18 18 16 14 12 11 11 12 12 12 11 10 12 13 12 10 8 6 7 2 9 5 2 3 3 4 6 10 9 5 8 7 5 5 2 6 7 6 7 8 8
10 9 11 11 12 15 18 16 14 12 10 9 9 9 10 10 10 12 13 12 10 8 5 7 5 2 6 0 7 4 5 4 2 4 5 3 4 9 6 6 4 8 10 9 10 7 6
10 8 10 10 12 15 16 13 11 9 7 6 6 6 8 9 12 12 10 9 6 5 6 6 4 6 7 3 7 1 5 4 1 2 1 1 7 4 2 7 8 10 9 9 9 7 2
10 8 9 9 11 14 14 11 9 6 5 4 5 5 7 9 9 9 9 7 6 5 6 3 12 11 5 1 3 2 3 4 4 4 5 5 5 6 9 9 2 10 7 4 2 8 5
11 7 8 8 10 13 12 9 7 5 4 3 4 6 7 8 9 11 10 3 5 4 13 6 12 2 4 4 3 6 4 5 6 6 10 7 9 2 13 9 6 9 6 6 7 8 3
10 7 7 6 9 11 10 8 5 3 3 4 5 6 7 8 9 10 7 6 7 5 7 1 5 4 2 5 6 5 4 6 5 11 3 4 3 7 5 7 6 5 5 4 3 5 4
9 7 6 5 8 10 10 6 3 3 4 4 5 5 7 8 7 7 11 6 4 8 5 5 2 5 1 7 4 4 4 8 9 10 7 9 10 5 4 2 8 4 4 8 7 10 9
9 7 5 5 6 9 10 5 4 5 4 4 5 4 9 11 6 9 9 2 4 6 5 7 8 5 5 3 4 1 4 4 3 2 3 8 3 2 1 2 7 7 6 5 8 9 9
9 7 5 5 5 8 10 5 5 5 7 6 5 6 9 8 10 9 2 2 4 3 4 5 5 3 7 4 9 4 3 5 5 2 3 6 4 1 2 6 6 5 6 7 8 10 11
9 8 6 5 5 8 10 5 7 7 7 6 3 6 8 4 3 2 2 2 2 4 4 6 6 8 7 4 1 4 3 3 5 3 6 8 3 6 7 4 2 7 9 11 8 9 4
10 8 6 4 4 7 9 5 7 8 8 7 7 9 4 3 3 0 1 2 4 4 7 8 10 8 10 6 6 7 6 5 3 5 6 6 5 6 5 10 7 6 8 4 2 4 2
11 9 6 3 4 7 7 3 8 9 9 9 8 5 3 2 0 1 2 5 6 4 6 8 11 9 7 7 4 2 10 8 8 10 4 8 7 4 5 6 7 5 6 2 4 4 6
12 9 6 3 3 6 6 1 9 10 12 11 9 3 2 3 1 1 4 6 2 4 8 7 11 9 4 4 1 3 11 7 6 9 6 3 6 6 5 5 7 6 5 4 3 2 2
13 10 7 3 2 4 4 1 10 12 14 15 7 5 6 3 2 2 4 7 1 6 4 10 9 5 8 8 8 7 4 2 4 8 6 4 2 3 3 3 2 4 1 2 1 2 3
14 11 7 4 1 3 4 0 10 14 17 16 3 4 4 7 3 5 6 5 1 2 5 5 4 4 2 6 3 3 4 5 4 4 5 7 3 5 5 6 7 1 2 2 3 1 2
15 11 7 4 2 2 4 2 10 15 17 9 4 4 6 9 5 6 8 2 1 7 3 2 4 2 4 4 3 4 8 7 2 3 6 4 2 1 7 6 4 3 5 4 1 4 1
15 12 8 5 2 1 4 4 9 17 18 5 4 4 4 5 5 4 3 5 6 8 8 5 2 1 2 5 3 6 8 3 4 7 4 4 1 3 8 5 4 0 3 2 4 2 5
15 11 8 5 2 2 4 5 7 15 18 3 4 3 4 5 8 11 8 7 5 4 5 1 4 4 6 5 3 6 9 4 4 8 2 3 1 1 2 6 7 7 10 8 10 4 6
16 12 9 5 2 2 4 6 5 9 12 5 4 5 7 7 7 7 11 9 10 6 4 5 5 6 6 3 5 5 10 8 5 3 2 3 1 4 7 9 8 9 11 11 12 12 9
15 11 8 6 3 2 4 5 5 5 8 4 4 2 3 4 11 9 5 7 11 7 9 9 4 7 8 6 3 7 6 5 4 4 2 3 1 3 3 5 10 13 15 13 13 13 10
16 12 9 7 4 2 4 5 5 3 6 6 2 2 2 2 4 5 5 8 9 9 2 4 6 7 11 12 12 11 10 8 5 4 4 2 1 2 3 9 10 3 3 6 8 7 9
16 13 10 8 4 3 4 6 6 3 1 4 3 3 3 2 5 8 9 6 8 9 6 7 7 8 7 10 10 10 10 8 1 5 2 4 2 2 2 4 2 4 14 11 7 6 9
16 13 11 8 5 3 5 6 7 5 5 4 2 3 3 2 7 5 9 7 11 6 10 12 9 8 9 2 2 2 2 4 1 4 3 4 3 2 1 3 9 9 3 5 5 9 9
16 13 12 9 6 4 4 6 8 7 7 5 5 5 3 5 2 6 7 11 8 9 7 4 3 4 1 2 2 2 3 2 6 6 9 4 4 2 2 2 3 3 7 5 5 8 9
16 14 13 10 7 5 4 6 7 7 7 5 4 4 2 2 3 5 6 8 8 8 5 7 5 2 3 2 2 3 2 2 4 5 4 2 2 3 5 5 6 8 6 1 3 3 8
17 15 13 11 8 6 4 5 6 5 6 6 4 6 4 3 4 5 2 3 1 5 4 8 4 1 2 3 3 2 1 3 1 3 6 7 6 4 4 3 6 1 3 2 5 7 6
16 15 13 11 8 6 4 4 5 5 4 4 3 7 9 3 4 5 7 8 7 9 3 7 1 6 4 3 2 1 2 1 3 2 6 4 6 4 9 5 7 7 4 6 7 7 5

GFSGBSN_925_spd_027.txt.gz
Wind_Speed
17 17 13 12 14 14 15 18 19 20 19 17 15 15 14 13 12 12 12 11 11 11 10 8 9 10 1 2 7 5 5 6 10 10 15 8 8 6 8 5 5 9 6 7 6 9 7
16 15 13 12 13 14 15 18 19 18 16 15 14 13 12 12 11 11 10 11 11 11 9 7 8 6 1 5 6 2 5 8 13 15 13 12 3 5 2 4 6 7 9 8 4 4 3
15 14 13 12 13 13 15 18 18 16 14 13 12 12 10 11 10 10 11 11 11 8 7 7 7 2 3 11 11 5 6 5 11 12 6 14 12 7 6 6 3 8 6 6 6 8 4
15 13 12 12 13 13 15 18 15 13 12 11 9 9 9 9 10 11 11 9 7 7 6 7 5 2 5 6 9 5 9 4 4 10 12 12 13 6 3 3 5 3 5 4 6 8 6
15 13 12 12 12 12 15 15 11 10 9 7 6 6 7 8 9 8 7 7 5 6 7 5 2 3 6 5 4 4 4 9 5 3 4 8 5 2 4 3 3 2 5 7 4 9 5
15 13 11 11 10 12 14 12 9 8 7 5 5 3 4 6 8 8 8 5 4 5 4 3 7 4 8 4 4 2 1 4 3 3 2 2 1 2 5 4 3 4 3 5 8 3 3
14 12 11 10 10 10 12 10 7 6 4 3 3 4 6 7 8 9 7 2 2 1 5 7 7 5 5 6 5 8 9 5 4 3 4 5 5 4 4 4 3 3 5 10 5 5 3
14 12 11 9 9 9 11 8 6 4 2 1 3 4 6 7 7 7 7 3 5 2 5 17 6 5 3 5 4 5 4 1 3 6 6 4 4 4 3 2 5 6 6 5 3 4 4
14 12 11 8 7 8 9 7 5 2 1 3 4 5 8 8 7 8 10 10 9 10 4 3 1 5 1 4 1 4 3 5 6 6 5 6 3 2 4 7 9 8 6 5 3 6 3
14 12 10 8 6 7 8 7 4 3 3 4 4 5 9 10 5 6 5 4 5 7 4 3 3 3 2 4 4 4 1 3 4 3 10 6 4 4 4 8 7 5 6 6 6 4 3
14 12 10 7 5 6 8 7 3 4 5 5 4 5 10 12 7 0 4 4 6 3 4 7 4 6 3 1 8 2 2 5 4 4 7 2 4 8 9 4 4 1 2 4 3 4 3
15 12 9 7 4 6 7 6 4 6 7 6 5 8 9 3 4 4 7 4 1 5 2 2 5 4 5 3 1 5 3 2 3 6 8 5 5 4 4 3 3 5 4 6 5 2 2
15 12 9 6 4 5 8 5 6 8 8 7 5 10 6 2 1 6 5 2 5 3 6 5 4 7 7 3 4 6 5 3 3 3 2 3 4 3 2 4 1 4 6 4 4 4 3
15 13 9 6 4 5 7 4 7 10 10 10 8 8 3 2 2 3 4 5 1 4 5 5 6 4 7 2 4 3 6 4 8 6 3 5 1 5 5 5 2 4 3 4 0 1 4
16 13 9 6 4 4 6 3 8 12 13 12 9 4 1 1 1 2 5 3 5 4 5 6 5 5 4 3 1 4 7 3 5 7 4 4 3 3 6 3 3 6 5 3 4 2 3
16 13 9 6 4 4 4 2 9 13 15 15 7 4 4 2 2 3 4 4 1 6 3 4 5 6 7 8 4 3 3 5 3 4 3 4 4 2 4 1 3 4 2 5 4 1 3
16 13 9 6 4 2 3 2 10 14 17 16 4 2 5 7 4 4 3 5 3 5 9 5 3 2 2 7 6 4 4 4 7 2 7 5 4 3 1 4 4 4 3 4 2 4 4
16 13 10 6 3 1 3 2 10 15 17 14 2 1 7 9 3 2 2 4 1 4 3 3 3 4 3 4 5 5 5 4 5 5 3 3 4 3 3 3 3 1 2 4 4 3 1
17 13 10 6 3 0 3 1 11 18 21 7 3 3 3 2 3 2 6 2 2 5 4 0 5 6 5 4 5 9 5 6 8 5 1 2 2 3 4 4 5 2 2 5 5 3 4
16 13 10 6 3 1 3 1 10 19 22 1 1 2 2 1 2 4 4 3 3 6 2 4 5 4 1 5 4 4 4 3 5 3 3 3 2 5 5 2 1 2 4 4 6 3 3
17 13 10 7 4 2 3 3 6 16 16 5 1 4 7 4 4 4 5 8 5 2 2 2 1 3 4 3 4 5 5 4 2 1 2 3 3 4 4 5 5 3 4 6 4 5 4
17 13 10 7 4 3 3 4 4 10 13 5 2 2 2 4 5 4 5 6 9 8 6 4 3 6 8 5 3 5 8 6 4 4 4 4 1 2 3 5 7 4 7 8 7 4 3
17 14 11 8 5 3 4 4 5 8 12 5 5 3 4 4 4 3 4 1 3 7 3 4 6 11 13 7 8 7 7 5 6 5 3 3 4 3 3 4 6 4 4 3 1 2 1
18 14 11 9 6 4 4 5 5 6 5 2 3 3 4 2 2 4 6 4 8 6 6 7 8 7 4 6 6 8 11 11 7 7 5 4 3 3 2 4 2 4 4 2 6 5 6
18 14 12 9 7 5 6 6 6 6 4 4 3 3 3 1 1 3 4 7 11 11 7 11 8 4 7 6 4 5 5 6 5 7 5 5 4 3 3 1 6 6 3 3 4 3 8
18 15 13 10 8 6 7 7 7 6 6 6 7 5 4 5 3 6 3 8 5 4 4 4 5 10 6 3 4 4 4 6 3 2 7 6 6 4 2 3 6 6 4 5 2 3 4
18 15 14 11 8 7 7 8 8 7 7 5 5 5 2 4 4 5 2 5 6 5 4 4 1 3 5 3 2 3 3 2 5 7 3 3 2 4 3 3 7 7 3 2 4 5 5
18 16 14 11 8 7 7 8 8 8 7 7 7 9 4 3 3 7 7 5 3 5 5 4 4 4 3 3 3 3 2 4 2 7 6 7 6 3 2 3 7 4 3 6 5 3 7
17 15 13 11 8 7 7 7 8 7 7 6 5 9 9 6 3 7 12 13 10 4 5 3 6 4 4 4 1 2 0 1 1 3 4 2 7 6 8 6 6 4 4 4 5 6 4

GFSGBSN_925_spd_030.txt.gz
Wind_Speed
18 17 15 17 13 14 15 14 16 18 18 19 18 16 14 14 14 14 13 12 12 12 8 6 3 5 2 1 8 7 10 9 11 7 10 5 4 6 6 3 3 8 3 6 6 7 3
19 18 15 15 13 15 15 15 16 18 18 17 16 14 13 12 13 13 12 12 10 9 7 4 3 5 0 3 6 13 11 6 9 11 8 7 6 7 5 9 6 6 7 7 5 2 3
19 18 15 13 13 15 15 16 16 18 16 15 14 13 12 11 12 12 12 11 8 7 5 2 3 1 2 12 8 15 11 10 2 2 2 2 3 5 1 6 6 8 6 5 1 3 2
19 18 14 14 12 14 15 16 16 16 13 12 12 11 10 10 12 11 9 7 7 6 3 2 2 2 6 11 14 16 8 6 4 5 8 10 12 2 5 1 6 5 5 3 4 4 1
20 18 15 14 12 13 14 15 15 13 10 9 9 7 8 9 8 7 7 7 6 3 1 1 1 3 8 12 5 10 4 5 3 4 7 11 5 2 7 4 5 5 4 5 2 8 3
21 19 16 14 12 13 12 13 13 10 7 7 5 5 6 6 6 8 9 7 4 2 3 2 3 2 6 4 4 1 1 4 3 5 7 6 5 4 4 5 3 5 4 4 6 4 3
21 19 17 14 12 12 11 12 11 8 5 4 4 5 5 7 9 9 9 3 1 2 4 7 5 3 4 3 4 3 3 3 3 3 0 6 6 2 5 4 4 2 3 9 1 0 3
22 20 17 14 13 10 9 11 9 6 4 3 4 5 7 8 9 8 7 2 2 1 3 10 10 8 22 6 1 3 4 2 1 2 3 6 3 4 4 7 8 5 8 4 5 6 5
23 21 17 15 12 10 9 10 7 5 4 5 6 7 10 10 8 8 6 5 7 9 1 4 7 6 3 2 2 4 3 1 3 3 3 5 5 1 7 6 8 6 5 2 3 3 4
24 22 18 14 11 10 9 9 6 6 6 6 7 8 10 10 5 3 4 6 4 3 3 3 1 2 1 4 3 1 2 2 3 0 9 4 4 6 6 5 2 2 1 2 3 4 1
25 22 18 14 11 10 9 7 6 7 8 8 7 8 12 12 2 6 3 6 5 1 3 3 2 6 1 3 4 2 2 3 1 2 7 2 4 7 6 0 1 3 1 0 1 3 3
27 21 18 15 12 10 9 6 7 9 10 9 8 9 12 10 5 1 6 7 1 6 2 4 5 4 3 0 2 3 1 3 1 6 6 4 3 4 2 3 2 2 3 7 4 3 3
26 21 18 14 12 10 8 6 8 11 11 9 8 12 11 4 1 3 5 3 5 4 2 5 4 5 5 4 3 3 4 6 4 4 3 5 3 4 3 4 5 8 5 3 4 4 4
26 21 17 15 12 10 6 5 10 13 13 11 12 14 6 4 1 3 2 5 2 4 5 4 5 5 5 3 3 3 3 3 6 4 3 4 2 4 7 3 1 2 5 4 3 2 4
27 21 17 15 11 8 5 5 11 15 15 14 12 7 4 4 1 1 5 3 5 4 6 6 5 5 2 2 4 6 3 2 1 3 5 4 1 1 2 1 3 3 4 4 6 3 3
26 21 18 14 10 7 4 5 13 16 17 16 9 5 3 5 4 5 4 5 3 3 3 5 5 5 5 6 3 4 2 3 0 3 2 2 4 2 2 5 5 5 2 4 4 2 0
25 21 16 12 9 6 4 6 14 17 19 17 4 3 4 5 4 5 3 5 3 3 5 4 2 5 5 6 6 3 2 3 4 3 5 2 4 4 4 2 2 4 3 5 4 3 4
24 20 16 12 9 6 4 7 15 18 19 15 4 3 4 6 3 1 2 4 4 3 5 5 3 4 4 4 4 4 3 2 6 2 3 2 5 3 2 2 1 2 3 4 4 2 1
23 19 16 12 8 5 4 7 16 20 23 8 4 3 3 1 3 2 4 4 2 2 1 2 2 4 4 4 6 3 4 2 8 4 2 2 2 3 6 6 5 2 2 5 6 3 5
22 19 15 11 8 5 4 7 17 23 22 5 3 3 3 3 1 6 2 3 2 3 2 3 3 5 5 5 6 4 3 4 4 3 2 2 3 5 6 4 3 1 2 4 5 3 3
22 18 14 11 8 6 4 6 15 22 25 1 2 4 6 4 3 3 4 4 3 1 2 3 4 3 5 3 3 4 3 2 4 3 3 3 3 1 1 3 1 1 2 1 4 4 5
20 17 13 11 8 6 4 7 14 19 19 5 3 3 2 3 5 6 5 6 8 3 3 0 3 4 5 4 5 7 7 3 4 2 2 3 1 2 3 6 6 3 5 5 4 4 4
19 16 13 11 8 7 6 8 14 20 19 4 2 1 5 2 5 4 4 6 9 8 6 4 11 8 9 4 4 5 4 5 6 6 2 3 4 3 4 4 5 6 5 3 1 2 4
18 16 14 10 9 8 8 9 13 20 18 4 3 4 4 1 4 6 3 2 6 3 8 3 6 6 3 6 2 6 11 11 10 8 3 4 4 3 3 3 1 5 5 4 9 4 8
18 15 14 11 9 8 8 9 11 13 12 6 1 3 3 1 2 3 5 10 8 7 6 5 6 1 7 6 5 5 5 6 4 6 6 4 5 3 3 2 5 4 4 5 5 5 4
18 15 14 11 10 8 8 9 9 9 10 9 8 6 5 5 3 2 4 8 6 4 5 4 5 5 8 3 4 4 4 5 2 2 6 6 6 4 2 4 6 5 2 4 4 5 8
18 16 14 11 10 9 9 9 9 8 7 7 7 6 5 4 3 3 4 5 6 4 4 2 1 4 4 3 3 3 3 4 4 6 4 3 3 4 2 2 7 7 4 3 5 7 7
18 17 14 12 10 10 10 10 9 8 7 7 10 7 3 3 3 5 4 4 3 3 5 4 4 4 3 4 3 4 3 5 2 5 6 7 6 4 3 2 7 7 3 7 5 3 7
19 17 15 12 10 10 10 10 10 8 7 8 6 10 11 5 3 7 13 13 6 3 6 1 6 4 5 4 2 3 2 1 2 3 2 2 7 5 9 7 5 6 5 3 6 6 6

GFSGBSN_925_spd_036.txt.gz
Wind_Speed
26 25 23 22 23 21 22 21 19 18 18 20 20 21 20 18 18 17 16 16 14 13 10 8 7 5 3 2 8 3 13 1 7 14 9 5 4 5 3 4 3 2 2 3 8 8 8
29 27 26 23 24 23 22 21 19 19 19 21 20 22 19 16 17 16 15 14 13 10 8 6 5 2 1 4 3 3 12 6 8 15 9 9 6 6 3 3 5 5 4 3 4 5 5
32 30 27 26 25 24 23 21 20 19 19 21 20 21 17 14 15 14 13 12 11 8 6 5 3 1 1 11 3 15 17 11 12 15 6 18 15 3 4 4 2 4 4 5 4 2 3
34 32 29 28 26 25 23 22 20 19 19 21 19 19 15 13 13 12 10 9 8 6 5 4 3 2 7 5 11 15 9 5 7 11 18 8 17 5 2 2 6 5 5 3 3 2 1
36 33 31 28 27 26 24 22 20 19 19 20 18 16 14 11 11 9 9 7 6 5 4 2 1 3 8 8 7 5 5 3 2 6 8 5 9 4 4 5 5 6 4 2 2 1 3
37 35 33 30 28 27 25 22 20 19 18 18 16 14 12 10 9 9 8 6 4 2 3 1 3 2 6 2 5 4 2 3 1 1 5 7 5 5 5 5 5 5 3 2 3 2 6
40 37 34 31 29 28 26 22 20 19 17 18 13 11 9 10 9 11 10 5 1 2 4 7 4 3 3 10 4 1 2 1 3 8 3 5 7 3 3 3 3 3 4 2 1 3 7
42 39 36 33 31 29 27 23 21 19 17 16 12 9 8 9 10 12 9 2 5 2 4 11 6 6 11 4 2 3 1 3 4 2 1 6 4 3 4 5 6 5 6 3 2 6 7
43 42 38 34 32 30 28 24 21 19 17 14 11 9 10 11 11 11 9 8 4 6 2 3 6 5 4 7 3 4 2 3 3 3 5 6 0 3 4 5 9 4 5 2 3 3 6
46 44 40 35 33 30 28 25 20 19 16 14 11 11 12 13 8 7 6 6 6 5 4 4 3 4 4 2 2 2 1 3 4 4 5 5 3 4 6 6 3 3 0 3 4 3 3
51 47 42 37 34 31 28 26 20 20 16 15 12 13 15 19 4 6 2 4 4 2 3 3 3 1 2 5 4 3 5 5 4 4 4 1 2 5 7 1 3 1 5 5 4 5 4
51 49 43 38 35 31 29 25 22 20 17 16 15 16 18 17 7 6 3 4 1 6 3 2 4 4 4 2 2 1 5 7 4 6 6 3 2 3 2 3 3 4 5 8 5 3 2
47 50 43 39 36 31 29 25 23 20 18 18 17 19 23 9 3 4 4 3 5 4 2 3 4 3 3 2 4 4 5 5 4 5 4 6 4 5 3 3 3 6 5 3 3 3 4
35 51 45 40 36 32 28 25 23 20 19 19 17 19 24 13 5 2 2 5 2 3 5 1 4 3 4 3 4 4 3 3 5 4 3 4 4 3 5 2 4 3 5 4 4 3 3
36 55 45 42 38 33 29 25 22 20 20 20 18 17 6 8 9 4 5 4 6 6 3 6 4 5 1 2 5 4 3 2 1 1 5 4 0 2 2 2 3 2 3 4 6 1 2
43 54 47 43 39 34 30 25 22 20 22 21 17 11 5 8 8 4 5 5 3 4 1 4 4 4 4 4 4 4 1 2 2 3 1 5 4 2 2 2 5 2 5 3 3 2 3
44 53 48 42 39 35 30 25 22 22 25 24 8 3 3 8 7 5 4 5 4 6 4 4 5 4 4 4 3 2 2 1 1 2 3 3 4 4 1 3 3 2 2 6 4 3 4
52 51 46 40 40 33 29 26 23 27 28 22 6 3 2 7 4 1 4 5 3 4 2 3 4 3 5 3 4 3 4 2 3 1 3 1 5 2 2 2 2 2 3 4 4 3 1
54 45 41 42 38 32 29 26 26 31 33 12 4 3 4 1 4 1 3 1 2 2 3 2 3 3 3 4 5 2 3 1 3 2 6 5 2 3 6 5 4 2 3 4 5 3 5
47 42 42 40 35 32 29 27 29 34 33 9 4 3 3 3 1 7 5 3 2 2 2 4 4 4 5 4 5 5 3 1 1 2 4 6 3 5 7 4 3 4 4 4 5 3 4
42 42 41 37 34 30 27 27 33 37 31 7 2 3 4 3 1 3 4 6 4 2 2 5 4 3 4 4 3 3 2 2 4 1 3 3 4 2 2 3 2 2 4 6 7 5 6
44 42 38 35 31 29 27 29 35 37 27 3 4 4 3 2 6 6 3 6 6 3 3 2 6 2 2 6 6 8 6 4 4 3 3 3 2 1 2 3 5 3 6 7 5 3 7
41 38 34 31 28 26 26 30 35 39 22 4 3 3 5 3 3 5 6 6 7 6 3 3 6 5 3 1 3 4 5 7 5 5 3 3 5 3 4 4 5 6 9 9 5 5 7
38 35 31 28 25 24 24 29 36 40 25 4 4 5 4 2 3 6 8 4 5 3 7 3 4 5 1 6 6 6 10 11 11 8 3 5 4 3 2 3 2 6 2 5 8 5 7
34 30 28 25 22 21 24 30 35 40 27 5 6 4 4 2 2 2 7 6 7 5 4 4 4 2 7 4 5 5 5 6 5 6 7 3 5 3 3 3 6 5 5 6 7 7 8
33 28 25 21 20 20 24 29 34 37 33 6 5 5 4 6 4 4 5 4 5 4 3 3 4 5 6 3 4 4 4 4 2 1 4 5 6 4 3 4 6 6 3 3 3 5 5
28 27 22 19 19 20 22 25 30 34 32 10 4 5 5 4 2 2 4 6 6 5 4 3 5 1 3 3 3 3 3 2 4 5 3 3 3 4 2 3 8 7 3 2 5 7 5
27 25 21 19 19 20 19 21 26 29 26 16 5 4 3 3 2 2 2 5 3 3 5 5 4 3 3 4 3 3 3 5 2 4 6 7 6 4 3 2 7 6 3 7 6 2 5
26 23 22 18 19 19 17 18 23 28 25 8 6 11 12 5 3 7 15 12 2 5 6 2 4 4 5 5 1 3 2 1 2 3 2 2 6 5 8 6 5 6 4 3 3 4 5

GFSGBSN_925_spd_039.txt.gz
Wind_Speed
28 28 27 25 21 21 20 20 19 21 18 18 18 19 20 20 20 18 17 14 13 10 10 11 11 7 4 1 8 4 5 6 14 17 14 6 5 4 4 4 4 5 3 5 7 7 4
31 30 29 27 23 22 22 21 21 20 20 19 19 20 21 20 18 17 16 12 10 8 9 9 6 4 2 4 4 5 4 4 9 18 10 8 7 7 3 4 3 3 3 5 3 9 4
34 32 31 29 26 24 22 21 22 20 20 19 19 20 20 19 17 16 14 11 8 7 7 7 4 1 2 13 3 5 17 11 11 18 6 14 6 3 1 1 3 4 8 5 6 4 3
36 35 33 31 28 26 24 22 22 21 20 19 19 20 19 18 15 13 11 9 7 7 6 4 3 1 7 7 9 17 12 5 7 15 14 4 14 0 0 1 4 4 4 5 2 3 2
39 37 35 33 30 27 25 24 23 20 19 19 18 19 18 15 12 10 8 7 6 4 2 2 2 3 8 9 7 5 4 2 2 6 7 5 8 2 2 4 3 7 3 3 4 4 4
34 39 36 35 32 29 26 25 23 21 19 19 18 17 17 13 10 8 6 4 2 2 2 1 4 3 7 2 6 6 1 2 3 5 3 2 2 3 2 3 4 3 4 1 4 2 10
30 42 39 37 35 31 28 25 24 21 19 19 17 16 14 11 9 8 7 4 2 1 4 7 4 3 5 11 5 1 1 1 4 6 2 2 3 3 2 2 3 4 3 4 3 4 6
30 37 42 39 37 33 29 26 24 22 20 19 16 15 12 9 9 10 11 3 5 2 3 13 6 6 12 5 3 3 1 3 3 2 2 4 3 2 5 5 5 4 6 3 3 3 4
27 27 45 41 38 34 31 27 25 22 20 19 16 13 11 10 11 11 12 12 3 5 1 3 5 5 4 7 3 3 1 2 3 2 2 5 1 3 3 4 8 5 6 3 4 4 6
33 30 23 40 39 34 32 29 26 23 20 19 15 13 12 12 7 7 8 12 14 5 3 2 3 5 3 3 1 2 0 3 4 4 3 5 3 4 3 3 2 4 2 4 6 2 2
34 36 35 35 41 36 33 30 27 23 20 19 15 14 15 18 5 6 2 6 4 1 3 3 4 3 2 5 3 1 5 4 5 4 3 1 2 4 3 0 2 4 3 4 3 4 2
31 32 34 32 44 39 35 31 27 24 21 19 15 16 17 22 8 11 3 3 3 5 3 3 4 5 4 3 2 2 3 6 4 5 5 3 1 3 2 3 4 8 5 5 3 2 1
30 31 33 31 46 42 36 31 27 24 22 18 17 19 24 16 4 5 5 3 3 4 2 3 3 4 3 2 3 3 3 4 3 4 3 4 3 3 3 4 3 4 4 2 1 1 3
31 31 31 36 48 44 37 32 29 25 20 18 18 20 26 22 11 2 4 3 3 3 5 1 3 4 5 4 2 3 3 2 4 5 3 3 0 3 4 2 4 2 3 4 4 3 1
32 31 34 34 51 44 38 34 30 26 19 15 14 17 14 27 21 11 4 2 6 6 3 6 3 5 2 1 4 3 2 2 1 1 4 4 1 1 3 1 1 4 2 2 6 2 1
33 31 34 28 47 44 40 36 32 26 20 17 13 9 7 14 13 8 4 5 4 4 3 2 4 3 4 3 3 3 1 1 2 2 1 4 3 1 1 1 6 1 7 3 2 3 3
33 33 35 34 35 45 41 36 34 27 22 22 9 3 6 14 14 3 4 6 5 5 5 6 5 4 3 5 3 2 3 1 1 2 3 3 3 2 1 0 5 2 2 5 4 1 2
34 36 38 35 35 44 40 39 34 28 26 31 8 3 8 17 3 0 4 5 3 3 3 4 4 3 5 3 3 3 5 2 1 1 4 1 4 3 2 0 1 1 3 4 3 4 1
34 36 34 36 40 49 43 40 35 30 39 20 5 3 3 5 4 1 2 3 3 1 2 4 3 3 2 4 4 2 3 0 1 3 6 5 1 3 2 2 1 3 3 4 5 2 5
35 36 36 43 43 47 44 39 35 34 41 21 4 3 2 3 1 8 5 4 3 3 1 4 5 4 4 3 4 5 3 1 2 2 6 5 3 4 6 3 2 4 4 4 4 3 4
32 33 35 43 49 46 42 38 37 37 42 13 1 4 4 4 2 4 3 6 5 2 1 2 4 3 5 4 2 3 2 2 3 3 3 3 4 2 1 1 1 2 4 9 8 4 7
33 30 44 50 48 45 40 38 35 42 37 5 5 4 3 2 6 6 0 6 6 3 1 1 7 3 3 6 6 8 6 4 4 2 2 2 3 2 3 1 3 4 5 6 7 4 11
41 39 50 48 45 40 37 36 36 47 34 5 4 3 5 3 3 6 5 6 7 7 3 4 6 5 4 2 3 3 6 8 5 5 3 2 5 3 3 3 3 5 9 13 6 6 8
39 55 45 42 38 35 33 35 38 47 35 6 5 5 4 2 3 6 7 4 7 4 7 3 4 5 1 9 8 7 11 13 12 10 3 5 4 2 2 2 1 4 2 2 10 7 12
37 38 39 36 32 31 34 34 38 47 30 6 9 5 4 3 2 3 6 5 6 5 5 4 4 1 8 3 4 4 4 5 5 7 7 3 4 3 2 3 5 5 2 5 6 5 11
35 33 32 30 29 31 31 33 41 49 23 11 12 10 5 7 5 5 5 4 5 4 3 3 3 5 5 3 3 4 3 3 1 1 3 5 5 3 3 2 5 5 2 3 3 4 1
33 30 26 26 29 29 30 35 45 49 22 11 8 9 6 4 1 3 4 6 5 4 4 4 5 2 2 2 3 3 3 1 3 5 2 2 3 3 2 3 7 6 2 1 3 4 3
29 26 25 24 24 26 30 36 43 48 29 9 10 7 4 3 2 1 1 5 3 2 5 5 4 2 2 3 3 3 3 4 2 3 5 5 6 3 3 1 6 5 3 4 3 2 2
28 25 22 21 22 24 29 35 41 45 36 9 6 8 10 5 3 8 15 11 2 2 6 0 3 4 4 4 1 3 2 2 2 3 0 3 5 4 8 5 3 5 4 2 1 3 2

GFSGBSN_925_spd_042.txt.gz
Wind_Speed
30 29 27 27 25 22 20 18 18 18 18 18 16 16 17 18 19 19 18 16 14 13 12 12 11 8 3 6 8 6 2 5 19 15 15 10 9 9 10 10 6 12 4 5 12 18 12
35 31 30 28 27 25 22 20 19 18 17 18 17 16 18 18 18 18 16 14 11 11 11 10 7 4 4 8 2 5 4 5 8 16 14 13 5 9 4 4 10 5 5 7 7 9 6
23 36 33 31 29 27 25 22 20 19 19 17 17 16 18 18 17 16 14 12 10 10 10 8 4 1 6 12 1 5 7 6 8 13 10 15 12 7 2 2 3 11 10 6 8 12 8
28 23 37 33 31 29 27 24 22 21 19 17 16 16 16 16 15 14 12 10 9 9 7 5 2 2 7 7 6 13 14 10 9 13 12 3 12 10 4 1 5 7 14 9 9 13 4
29 26 29 37 33 31 29 26 23 22 20 17 17 16 15 15 13 12 9 8 7 6 3 1 1 4 7 8 8 6 7 3 7 8 8 2 10 5 6 10 9 9 9 11 8 2 8
29 29 26 34 35 33 30 27 25 22 20 18 16 16 14 13 12 9 6 4 4 2 1 1 4 5 8 0 4 5 3 4 4 9 5 4 6 5 6 9 8 7 8 9 10 5 10
27 33 28 25 37 34 31 28 26 23 21 18 16 15 14 12 9 6 4 2 5 5 6 7 1 5 4 11 3 5 1 4 2 6 10 7 7 6 13 4 4 4 6 12 8 4 7
30 29 30 26 31 35 33 30 27 24 21 18 16 14 13 11 7 7 6 6 3 4 6 18 14 9 14 5 4 4 1 4 1 1 3 6 3 5 5 4 3 5 7 7 5 4 5
32 31 28 29 30 34 35 31 28 25 21 18 15 14 12 8 6 8 11 15 3 9 5 3 6 8 4 8 3 6 3 2 3 2 4 5 6 4 7 8 7 4 3 10 5 7 2
34 33 31 27 27 38 35 32 29 25 21 18 15 13 10 7 4 7 8 13 15 9 4 7 6 5 5 4 5 1 1 2 1 6 3 4 3 4 6 6 3 5 2 5 11 10 7
36 33 32 30 26 25 38 32 30 25 22 18 16 13 11 14 1 8 1 6 6 3 5 10 7 3 5 5 3 3 3 3 6 4 3 4 5 5 4 3 1 4 4 4 3 4 5
35 33 31 31 29 25 31 32 31 26 23 19 17 12 12 14 10 9 1 4 5 5 5 8 7 9 9 4 3 3 3 4 3 2 2 5 3 2 3 6 2 10 8 6 2 3 8
35 32 32 30 25 29 27 34 32 27 23 21 16 13 18 11 5 5 7 5 6 6 3 7 10 11 12 6 6 5 8 9 7 9 9 6 3 3 3 9 6 6 6 3 3 4 6
35 32 32 29 25 28 28 34 33 29 25 22 15 14 17 15 8 2 6 7 9 6 8 2 7 13 12 9 5 4 8 8 3 6 9 9 7 5 1 3 2 2 3 3 4 3 1
33 31 31 29 28 29 29 36 35 31 27 22 14 11 8 14 19 3 6 11 8 6 7 9 10 15 8 7 4 7 5 7 3 4 7 6 4 4 3 2 3 5 4 3 2 1 3
31 32 30 31 30 30 31 37 37 33 29 23 14 10 11 11 16 9 6 14 9 4 5 10 13 13 14 13 9 9 9 4 4 2 3 4 4 2 5 2 7 4 9 3 3 3 4
30 31 30 31 31 28 31 38 39 36 31 24 13 6 9 16 15 7 10 14 7 6 6 11 13 8 12 9 9 10 9 4 4 4 1 5 3 6 4 7 6 4 4 1 0 2 2
32 32 31 32 32 28 24 44 40 39 32 30 12 9 13 28 8 8 12 12 4 7 5 7 7 7 12 11 8 9 10 3 4 4 5 2 1 4 5 3 1 2 5 8 4 4 1
34 34 33 33 31 29 35 39 43 42 37 22 8 5 6 7 11 8 9 7 6 6 8 9 8 5 6 10 5 5 6 2 3 5 6 6 3 4 4 4 4 7 9 5 4 1 6
35 36 34 34 32 33 36 32 41 40 40 20 10 7 5 5 7 15 13 15 8 2 5 4 5 4 8 6 1 7 7 3 2 2 3 3 3 7 10 2 0 6 11 11 11 4 5
37 37 35 34 35 34 37 36 42 41 40 8 7 8 11 12 14 12 16 14 14 6 3 7 5 8 8 5 6 6 6 5 3 5 3 3 6 4 2 0 3 4 8 13 15 14 8
37 36 35 35 38 35 39 45 46 41 41 5 7 6 5 16 17 13 12 12 17 6 6 7 8 10 7 6 8 10 10 7 5 6 5 2 3 3 3 2 2 7 8 10 15 16 15
35 36 34 36 35 39 39 46 46 43 45 11 6 2 11 4 14 12 11 12 14 11 1 3 11 9 6 4 5 7 7 7 5 7 6 4 5 4 2 2 3 6 15 18 13 12 15
35 34 32 38 42 44 46 50 47 45 48 12 6 5 7 7 12 13 12 9 12 9 7 5 3 4 5 16 17 14 14 12 10 9 2 5 5 1 1 2 3 1 1 3 12 16 15
34 32 39 40 41 47 48 45 44 44 53 8 4 4 4 4 12 11 13 7 9 5 5 6 4 3 15 3 4 4 2 2 5 7 5 1 4 3 2 4 6 12 3 3 3 6 4
35 32 31 37 39 47 44 42 42 41 54 25 9 4 4 8 9 14 11 11 7 6 5 4 6 10 2 2 2 4 4 4 5 4 3 5 3 2 3 3 4 3 4 1 2 5 3
35 40 45 46 42 39 41 41 39 38 51 25 6 5 3 4 4 8 12 11 5 5 5 6 8 3 1 2 2 2 3 1 5 5 4 2 1 4 3 4 6 1 1 2 2 3 1
47 45 38 37 40 38 37 36 34 39 52 16 3 4 2 4 5 1 2 6 5 6 6 8 6 2 2 2 2 3 2 4 3 2 4 5 6 3 3 3 4 5 6 3 4 3 3
34 35 36 35 35 35 33 33 36 46 41 11 4 13 14 7 4 7 9 6 3 3 6 11 1 6 5 3 1 3 3 1 1 3 3 3 3 1 6 1 3 6 6 3 4 7 7

GFSGBSN_925_spd_048.txt.gz
Wind_Speed
22 24 19 19 26 22 21 20 19 18 17 17 17 17 17 17 19 20 21 22 21 20 19 17 15 14 8 8 12 7 4 2 8 13 13 11 9 10 13 13 12 14 8 11 3 15 3
20 21 22 20 18 25 23 22 20 19 18 17 17 16 18 17 19 20 21 21 21 19 17 15 12 9 6 11 7 3 3 4 7 13 13 13 8 10 11 14 10 2 4 8 10 5 2
21 22 22 23 20 21 26 24 21 20 19 18 17 16 18 17 18 20 21 20 19 17 15 12 10 5 10 18 12 4 5 7 5 11 11 15 11 9 3 11 6 10 12 8 2 3 2
23 23 21 23 24 20 22 25 23 21 20 18 17 16 17 17 18 19 20 19 17 15 13 10 7 6 7 11 12 18 13 14 14 8 11 12 8 10 9 9 4 4 7 3 2 9 10
25 25 22 21 22 23 21 21 24 22 20 19 18 16 16 16 17 19 18 17 15 13 10 7 5 8 9 3 12 16 14 15 4 4 7 4 4 5 8 7 1 3 8 15 9 14 6
26 26 23 22 22 22 23 20 20 22 21 19 18 15 15 15 17 18 17 15 13 12 7 9 12 10 9 11 9 11 6 4 7 6 4 4 5 7 6 7 8 13 14 12 9 11 13
29 26 27 23 23 23 24 22 20 19 21 20 18 15 15 14 15 15 13 11 6 5 10 10 9 7 7 6 8 9 16 8 10 9 5 7 6 9 12 14 11 6 7 13 13 10 12
30 30 29 29 26 24 23 25 21 20 20 20 18 15 14 13 14 12 7 7 7 8 10 18 19 18 16 9 8 13 14 8 12 8 2 9 10 6 9 15 18 13 6 9 11 10 10
33 32 31 30 30 27 25 24 23 23 21 20 18 16 13 11 12 11 12 18 14 18 6 15 20 17 14 16 14 13 11 13 5 4 8 7 8 22 19 22 17 11 8 9 11 7 9
33 34 33 31 31 30 28 25 24 23 22 20 19 16 13 9 6 8 12 12 16 10 5 10 14 13 14 8 13 20 19 13 7 5 12 5 15 21 22 5 7 5 9 10 15 11 9
36 35 35 34 32 31 29 26 23 25 23 21 20 17 14 13 11 8 8 3 4 6 4 10 15 8 14 15 6 14 6 10 12 4 11 15 11 20 18 4 3 4 15 17 11 9 4
35 36 37 35 34 33 30 28 24 25 26 23 21 18 14 9 11 15 6 10 4 5 7 6 10 12 20 15 13 8 12 10 7 10 13 13 13 25 2 3 0 14 13 12 9 9 6
38 37 37 38 36 35 32 30 25 24 28 25 24 21 21 11 7 7 7 5 5 7 5 10 16 15 16 14 15 10 12 17 12 9 8 0 12 4 8 8 5 7 8 3 5 6 5
41 36 39 38 38 36 33 32 27 25 28 28 24 21 21 18 15 5 7 6 11 12 21 2 14 15 19 16 14 12 14 15 18 17 10 9 10 11 9 5 4 17 1 2 3 3 6
42 38 36 40 39 37 35 33 28 26 25 27 24 19 14 21 18 9 8 12 11 10 17 10 12 16 17 18 9 14 15 16 16 17 15 1 2 10 16 3 11 11 4 3 6 3 2
48 42 39 38 42 39 36 34 29 27 25 31 20 14 19 22 21 12 9 19 16 23 12 10 15 15 15 17 13 11 13 13 17 17 9 6 6 16 21 5 5 6 6 3 2 2 4
45 44 38 32 44 41 38 34 31 29 27 30 18 6 11 25 22 8 14 18 22 20 16 11 14 14 16 14 14 12 9 10 16 8 2 7 13 11 8 8 8 5 7 6 8 4 1
44 41 39 36 42 42 40 37 34 30 30 34 7 8 30 37 10 10 15 21 22 23 12 11 15 15 13 14 14 16 15 13 9 7 8 12 5 4 10 2 5 10 11 8 3 6 3
39 39 36 44 39 45 41 39 37 33 38 20 6 6 30 28 12 13 16 24 25 23 19 15 15 12 13 14 12 14 9 5 6 7 3 4 4 5 9 7 8 8 12 9 8 2 5
39 38 36 40 28 45 44 42 39 36 41 21 6 8 4 10 11 21 23 21 25 23 20 14 14 15 13 13 9 9 9 4 2 1 3 4 5 9 6 11 4 6 10 11 10 3 4
42 41 40 36 37 46 45 43 41 38 42 23 3 10 9 10 16 17 20 20 26 25 20 15 17 17 13 10 11 11 11 6 4 3 1 3 8 12 14 14 12 8 13 7 10 10 10
34 36 35 37 41 46 47 42 41 40 40 21 6 7 12 7 19 22 21 26 26 26 19 21 14 18 16 12 13 10 11 8 7 7 8 5 6 5 8 10 13 10 14 15 14 15 15
40 37 38 36 45 46 46 43 41 40 43 9 23 8 3 13 21 20 23 24 26 23 19 22 16 14 15 9 4 7 3 12 8 11 10 7 3 2 2 6 7 5 10 15 16 15 11
40 29 31 36 42 41 40 40 42 38 49 21 25 4 4 10 18 24 24 24 26 22 18 14 9 18 7 12 12 12 11 8 5 3 8 6 5 2 1 1 1 9 3 5 5 8 9
40 34 33 38 39 38 38 37 38 36 50 26 25 5 4 6 18 23 27 21 21 17 9 11 6 6 14 9 5 4 2 3 1 4 4 4 5 2 2 4 7 12 2 2 1 3 11
42 37 37 35 36 35 34 36 37 39 39 37 26 15 6 5 16 29 25 21 14 9 4 1 6 8 5 3 3 4 4 6 7 7 1 2 5 3 3 3 5 1 6 2 2 2 8
42 43 39 37 35 35 35 36 38 34 40 33 18 28 11 3 9 24 19 16 20 10 4 8 4 4 3 3 2 2 3 4 5 6 4 2 1 4 3 2 5 3 6 1 3 3 6
42 40 36 34 34 34 35 36 40 39 33 38 30 34 10 3 14 20 17 12 13 13 7 7 8 2 3 3 3 2 2 3 2 8 7 7 6 3 2 2 6 7 6 2 4 5 7
39 37 35 34 34 35 36 34 39 38 37 35 18 31 27 10 3 13 13 17 10 8 10 13 3 9 5 4 2 3 2 2 2 3 10 4 5 4 7 4 5 5 8 6 6 6 7

GFSGBSN_925_spd_051.txt.gz
Wind_Speed
18 19 22 22 20 19 23 20 18 17 15 15 15 16 16 17 18 18 19 20 21 22 20 18 16 15 7 3 9 12 5 2 7 10 12 9 8 6 7 5 8 6 8 2 13 9 10
19 19 19 20 21 20 20 23 20 17 16 15 15 15 16 17 18 18 19 21 21 20 18 15 14 12 2 5 7 6 3 3 5 12 12 14 7 7 5 7 5 5 10 8 11 11 8
21 22 20 19 18 21 19 20 22 19 17 16 15 15 16 17 18 18 20 21 20 19 15 13 11 6 5 16 13 11 6 8 11 14 6 19 17 4 7 7 9 3 7 5 4 10 3
23 22 21 20 19 20 22 20 20 21 18 17 16 15 15 17 18 18 20 21 20 17 13 10 9 2 7 15 15 18 12 15 17 17 18 15 11 5 3 5 8 3 5 4 4 12 4
27 25 23 22 21 19 20 22 18 20 20 18 16 16 15 16 17 18 20 21 19 16 12 8 5 4 9 18 10 21 18 19 15 6 3 4 3 2 5 2 4 3 4 4 1 21 9
29 28 26 24 23 21 19 21 20 17 19 18 17 16 16 15 16 17 20 21 17 15 5 2 10 6 8 5 11 18 19 20 4 5 2 1 1 1 3 2 3 3 3 5 7 12 20
32 29 28 26 25 22 20 20 21 18 17 17 17 16 15 15 14 16 19 9 1 1 4 8 6 5 13 12 7 5 7 16 5 4 3 4 3 1 3 2 8 8 13 10 7 9 10
33 32 30 28 27 26 24 20 20 22 18 15 17 16 14 14 14 14 12 4 7 6 8 15 19 19 26 19 6 13 18 5 6 5 4 3 3 4 11 10 11 9 12 1 8 5 7
35 33 33 30 28 27 27 24 20 20 20 17 16 16 14 12 13 14 13 17 17 13 4 9 14 11 7 11 8 14 5 7 3 4 1 4 3 4 8 13 15 7 4 2 3 4 2
39 37 32 33 30 29 28 27 24 20 21 18 17 16 13 10 9 7 7 14 2 2 3 6 7 8 7 9 6 15 19 8 3 6 4 3 5 3 9 16 19 8 13 2 0 3 2
39 40 39 36 35 32 29 28 27 22 20 20 18 17 15 13 8 6 8 10 10 5 4 5 9 10 9 9 1 5 25 9 7 6 4 3 5 0 6 14 11 7 11 6 5 2 4
37 39 40 39 37 36 31 29 30 25 21 21 20 19 15 13 13 18 7 13 4 1 7 4 8 7 8 10 7 5 5 2 4 7 8 8 5 5 5 7 8 3 2 4 5 3 2
42 35 36 37 40 38 34 31 30 26 22 22 21 22 24 13 5 14 9 5 1 4 6 8 11 10 9 6 8 8 7 5 4 3 3 3 8 3 4 10 6 6 4 3 5 6 4
44 43 37 36 36 39 38 34 31 29 23 24 22 24 25 25 21 11 3 3 8 11 10 5 10 8 9 6 9 11 5 6 8 7 3 6 3 2 5 4 4 5 3 4 4 1 5
43 41 39 38 37 38 38 37 32 30 25 23 22 25 16 28 24 11 2 9 8 6 8 4 9 10 9 11 6 9 8 7 9 12 6 4 3 4 7 5 4 1 4 6 5 2 3
39 41 36 37 36 36 38 38 34 32 27 24 20 12 15 25 19 9 5 13 6 14 8 8 8 8 8 10 10 6 8 8 8 12 7 2 4 3 7 5 8 5 4 2 3 2 3
45 43 37 39 36 36 40 40 37 33 29 27 15 4 10 25 18 4 12 15 15 21 12 5 4 5 8 7 11 7 6 7 8 4 10 6 4 2 6 2 11 2 3 2 4 5 5
48 41 42 39 45 38 41 42 39 36 32 32 9 6 23 37 7 4 13 11 12 21 14 10 5 1 1 8 5 7 5 8 4 8 5 8 5 4 14 20 14 6 6 6 5 5 3
49 48 47 45 44 41 40 44 43 41 41 24 6 5 28 33 11 12 9 14 19 17 16 6 4 3 3 4 5 8 8 6 4 5 6 2 2 3 1 4 3 3 5 4 3 4 4
50 49 47 45 46 48 44 47 47 46 45 21 5 7 5 9 5 19 15 15 21 18 20 20 11 7 5 5 5 5 3 1 5 4 2 7 0 5 6 6 4 4 5 6 4 4 4
48 47 45 42 43 46 47 46 49 49 47 19 4 9 7 11 16 11 17 12 18 15 16 12 12 8 8 5 5 0 4 3 2 1 2 4 4 1 4 5 5 4 1 5 4 5 6
45 46 44 44 46 34 43 34 49 50 46 22 5 6 6 3 15 17 14 22 25 22 13 19 15 10 9 7 8 7 5 5 5 1 3 1 3 3 1 5 7 4 6 6 6 6 5
44 44 45 41 41 36 34 29 50 50 45 13 10 5 7 9 14 17 20 17 21 19 15 19 10 7 7 9 4 4 3 9 9 9 7 6 4 3 2 4 6 6 7 5 6 4 3
45 41 40 38 39 32 32 38 47 52 55 12 14 3 3 5 13 16 22 19 23 24 17 10 15 8 6 7 8 8 11 11 9 4 5 6 5 3 3 3 1 8 2 5 5 5 8
43 41 36 39 38 35 36 35 47 54 52 32 8 3 2 2 12 15 22 20 18 19 15 11 7 5 9 6 4 4 5 6 2 4 3 4 5 2 4 4 5 8 2 3 4 4 5
43 40 35 36 36 36 39 41 46 48 47 33 31 7 1 2 9 18 21 17 15 15 7 1 3 7 7 4 4 5 5 6 4 2 8 6 5 5 2 4 6 6 4 4 3 1 5
40 39 33 30 35 39 45 44 46 46 42 34 19 23 2 3 4 11 17 22 12 5 4 4 1 6 4 2 3 3 4 8 5 9 4 3 3 5 2 2 7 5 6 1 6 6 4
41 38 31 29 38 39 43 43 42 39 39 36 29 12 2 2 8 8 10 12 14 7 6 6 5 2 1 4 3 3 3 4 4 8 8 7 6 3 3 2 6 6 4 6 5 4 7
41 36 35 31 35 36 38 37 35 36 36 35 16 23 15 3 5 25 11 13 19 9 7 1 6 8 6 4 2 3 3 2 3 2 2 2 7 6 7 6 5 9 12 6 8 7 5